Location: Rochester
(43.1610°N, 77.6109°W)
Time: 07:46:05
(UTC-05:00)

Tiangong 2 - Visible Passes

Search period start: 13 December 2018 00:00
Search period end: 23 December 2018 00:00
Orbit: 382 x 391 km, 42.8° (Epoch: 13 December)

Date Brightness Start Highest point End Pass type
(mag) Time Alt. Az. Time Alt. Az. Time Alt. Az.
18 Dec 4.1 19:02:53 10° SSW 19:03:09 11° SSW 19:03:09 11° SSW visible
19 Dec 3.3 18:05:00 10° S 18:06:51 15° SSE 18:07:15 14° SE visible
20 Dec 2.7 18:41:32 10° SW 18:43:33 29° SSW 18:43:33 29° SSW visible
21 Dec 2.7 17:43:10 10° SSW 17:45:46 24° SSE 17:47:32 15° ESE visible
21 Dec 4.2 19:19:08 10° WSW 19:19:48 15° WSW 19:19:48 15° WSW visible
22 Dec 1.3 18:20:24 10° WSW 18:23:30 54° SSE 18:23:44 51° SE visible
